QPF
0.08 0.05 0.06 0.06 0.05 0.05 0.07 0.14 0.19 0.18 0.14 0.10 0.07 0.08 0.08 0.08 0.07 0.07 0.07 0.07 0.07 0.07 0.07 0.10 0.12 0.12 0.11 0.12 0.11 0.14 0.19 0.20 0.21 0.17 0.16 0.13 0.11 0.10 0.10 0.09 0.09 0.11 0.10
0.04 0.03 0.06 0.07 0.06 0.05 0.09 0.15 0.18 0.20 0.19 0.16 0.12 0.09 0.08 0.08 0.08 0.06 0.06 0.07 0.06 0.06 0.09 0.12 0.12 0.10 0.10 0.13 0.17 0.22 0.25 0.22 0.24 0.21 0.19 0.15 0.14 0.11 0.11 0.11 0.12 0.11 0.15
0.02 0.02 0.06 0.05 0.05 0.06 0.07 0.10 0.12 0.14 0.16 0.16 0.13 0.09 0.08 0.09 0.07 0.05 0.04 0.04 0.04 0.06 0.07 0.09 0.09 0.10 0.12 0.16 0.23 0.34 0.31 0.22 0.23 0.23 0.21 0.15 0.15 0.14 0.12 0.13 0.11 0.09 0.16
0.01 0.01 0.03 0.05 0.04 0.05 0.08 0.11 0.14 0.16 0.16 0.14 0.12 0.09 0.05 0.05 0.04 0.03 0.04 0.05 0.05 0.06 0.06 0.10 0.17 0.16 0.15 0.18 0.25 0.31 0.24 0.19 0.19 0.20 0.21 0.23 0.19 0.17 0.11 0.12 0.11 0.09 0.14
0.01 0.02 0.04 0.05 0.06 0.08 0.09 0.08 0.09 0.10 0.12 0.13 0.11 0.08 0.05 0.05 0.04 0.04 0.07 0.07 0.06 0.06 0.06 0.11 0.16 0.14 0.14 0.14 0.14 0.13 0.14 0.13 0.12 0.14 0.17 0.28 0.23 0.20 0.12 0.11 0.11 0.10 0.10
0.01 0.03 0.06 0.05 0.08 0.08 0.07 0.05 0.05 0.07 0.07 0.08 0.08 0.07 0.06 0.05 0.07 0.09 0.07 0.06 0.06 0.06 0.05 0.07 0.11 0.16 0.15 0.11 0.07 0.06 0.08 0.09 0.09 0.10 0.12 0.21 0.25 0.19 0.13 0.10 0.10 0.10 0.10
0.01 0.02 0.05 0.03 0.05 0.07 0.05 0.05 0.06 0.06 0.05 0.05 0.06 0.05 0.05 0.04 0.04 0.02 0.03 0.05 0.06 0.05 0.04 0.07 0.11 0.14 0.11 0.07 0.05 0.06 0.06 0.07 0.07 0.06 0.07 0.11 0.13 0.12 0.12 0.09 0.09 0.11 0.13
0.00 0.01 0.03 0.02 0.03 0.06 0.05 0.06 0.07 0.07 0.05 0.05 0.05 0.06 0.06 0.05 0.04 0.03 0.04 0.07 0.08 0.09 0.11 0.13 0.11 0.09 0.08 0.06 0.05 0.07 0.07 0.07 0.06 0.05 0.07 0.09 0.08 0.08 0.11 0.11 0.10 0.10 0.11
0.01 0.01 0.01 0.02 0.03 0.04 0.06 0.09 0.11 0.10 0.08 0.08 0.09 0.09 0.07 0.04 0.04 0.04 0.05 0.09 0.11 0.12 0.10 0.10 0.07 0.08 0.09 0.08 0.08 0.09 0.09 0.10 0.06 0.07 0.11 0.10 0.07 0.07 0.09 0.10 0.09 0.09 0.09
0.01 0.01 0.01 0.01 0.02 0.04 0.10 0.14 0.17 0.15 0.13 0.12 0.11 0.09 0.08 0.05 0.04 0.06 0.08 0.09 0.09 0.10 0.08 0.07 0.07 0.08 0.10 0.11 0.17 0.14 0.12 0.12 0.11 0.13 0.13 0.10 0.08 0.06 0.08 0.11 0.11 0.11 0.12
0.01 0.01 0.02 0.02 0.02 0.06 0.17 0.23 0.21 0.15 0.12 0.12 0.12 0.12 0.10 0.08 0.07 0.08 0.11 0.10 0.09 0.08 0.07 0.07 0.08 0.09 0.11 0.19 0.21 0.14 0.12 0.14 0.15 0.13 0.09 0.08 0.08 0.07 0.07 0.09 0.13 0.15 0.15
0.01 0.02 0.03 0.04 0.07 0.11 0.17 0.16 0.15 0.12 0.08 0.08 0.08 0.08 0.07 0.09 0.08 0.08 0.09 0.11 0.12 0.11 0.10 0.10 0.09 0.11 0.15 0.16 0.14 0.13 0.15 0.14 0.18 0.16 0.11 0.10 0.08 0.05 0.04 0.04 0.05 0.07 0.10
0.01 0.01 0.02 0.03 0.04 0.06 0.09 0.10 0.10 0.11 0.10 0.08 0.08 0.09 0.09 0.09 0.08 0.09 0.09 0.14 0.15 0.12 0.09 0.11 0.11 0.10 0.09 0.08 0.09 0.12 0.13 0.14 0.18 0.16 0.09 0.09 0.08 0.06 0.05 0.03 0.03 0.04 0.06
0.02 0.01 0.01 0.02 0.02 0.02 0.05 0.06 0.07 0.08 0.09 0.07 0.07 0.12 0.12 0.12 0.10 0.10 0.10 0.14 0.17 0.15 0.10 0.08 0.07 0.06 0.07 0.08 0.08 0.11 0.12 0.14 0.18 0.13 0.07 0.07 0.08 0.05 0.06 0.05 0.04 0.04 0.04
0.02 0.01 0.01 0.01 0.01 0.02 0.03 0.03 0.03 0.03 0.04 0.04 0.05 0.11 0.15 0.15 0.12 0.10 0.07 0.10 0.11 0.07 0.07 0.06 0.04 0.05 0.07 0.07 0.07 0.09 0.12 0.12 0.13 0.12 0.07 0.06 0.05 0.05 0.06 0.08 0.08 0.06 0.05
0.02 0.03 0.02 0.02 0.01 0.01 0.02 0.02 0.01 0.01 0.01 0.02 0.05 0.08 0.13 0.16 0.15 0.11 0.06 0.05 0.06 0.05 0.05 0.05 0.04 0.05 0.07 0.06 0.06 0.08 0.09 0.07 0.07 0.09 0.08 0.06 0.05 0.05 0.06 0.08 0.07 0.06 0.06
0.02 0.02 0.03 0.04 0.04 0.03 0.02 0.03 0.03 0.01 0.01 0.02 0.05 0.06 0.09 0.11 0.11 0.07 0.04 0.03 0.04 0.04 0.05 0.05 0.05 0.05 0.05 0.07 0.07 0.07 0.05 0.05 0.05 0.06 0.06 0.07 0.05 0.05 0.05 0.05 0.04 0.06 0.06
0.01 0.01 0.03 0.05 0.07 0.05 0.03 0.03 0.02 0.01 0.01 0.01 0.02 0.03 0.04 0.05 0.04 0.04 0.03 0.02 0.03 0.05 0.05 0.05 0.06 0.05 0.08 0.10 0.09 0.07 0.06 0.05 0.04 0.05 0.08 0.09 0.07 0.05 0.06 0.05 0.04 0.05 0.06
0.01 0.01 0.01 0.05 0.06 0.04 0.04 0.05 0.03 0.01 0.01 0.00 0.01 0.01 0.02 0.03 0.03 0.02 0.02 0.01 0.02 0.02 0.03 0.04 0.05 0.05 0.08 0.08 0.07 0.07 0.05 0.05 0.06 0.06 0.07 0.08 0.07 0.05 0.05 0.04 0.04 0.05 0.07
0.01 0.01 0.02 0.04 0.04 0.05 0.06 0.03 0.01 0.01 0.01 0.01 0.01 0.01 0.02 0.02 0.02 0.01 0.01 0.01 0.01 0.01 0.02 0.02 0.02 0.03 0.05 0.07 0.07 0.09 0.08 0.07 0.07 0.08 0.08 0.08 0.07 0.06 0.06 0.04 0.03 0.05 0.06
0.00 0.01 0.02 0.04 0.03 0.05 0.04 0.03 0.01 0.02 0.02 0.02 0.01 0.01 0.02 0.02 0.02 0.01 0.01 0.01 0.01 0.02 0.02 0.03 0.02 0.03 0.05 0.06 0.08 0.07 0.08 0.07 0.07 0.07 0.08 0.08 0.07 0.08 0.07 0.06 0.05 0.04 0.04
0.00 0.00 0.01 0.01 0.01 0.02 0.02 0.02 0.02 0.02 0.02 0.03 0.03 0.05 0.05 0.05 0.03 0.02 0.01 0.01 0.01 0.02 0.03 0.03 0.02 0.02 0.03 0.05 0.04 0.04 0.04 0.04 0.05 0.05 0.06 0.07 0.07 0.07 0.08 0.10 0.07 0.06 0.06
0.01 0.02 0.02 0.01 0.02 0.02 0.02 0.02 0.02 0.02 0.03 0.03 0.04 0.04 0.04 0.04 0.04 0.04 0.03 0.02 0.02 0.02 0.02 0.02 0.02 0.01 0.01 0.02 0.02 0.02 0.03 0.04 0.04 0.04 0.04 0.06 0.06 0.04 0.04 0.06 0.05 0.07 0.06
0.01 0.02 0.02 0.02 0.02 0.02 0.02 0.01 0.01 0.01 0.01 0.01 0.01 0.02 0.02 0.03 0.04 0.04 0.04 0.03 0.03 0.02 0.02 0.02 0.01 0.01 0.01 0.02 0.02 0.03 0.02 0.02 0.03 0.03 0.03 0.04 0.04 0.03 0.03 0.03 0.03 0.03 0.03
0.00 0.00 0.01 0.01 0.01 0.01 0.01 0.01 0.01 0.01 0.01 0.01 0.00 0.01 0.01 0.02 0.03 0.03 0.03 0.02 0.02 0.02 0.02 0.02 0.01 0.01 0.01 0.01 0.01 0.03 0.04 0.04 0.04 0.03 0.04 0.04 0.03 0.03 0.04 0.03 0.03 0.03 0.04
0.00 0.00 0.01 0.01 0.01 0.01 0.01 0.01 0.01 0.01 0.01 0.01 0.01 0.01 0.01 0.02 0.03 0.02 0.01 0.02 0.02 0.02 0.02 0.02 0.02 0.01 0.01 0.01 0.01 0.02 0.03 0.05 0.05 0.05 0.04 0.03 0.03 0.03 0.03 0.04 0.04 0.04 0.03
MSLP
1008.44 1007.51 1006.86 1006.52 1006.46 1006.59 1006.76 1006.86 1006.77 1006.45 1005.91 1005.22 1004.50 1003.85 1003.32 1002.96 1002.71 1002.51 1002.24 1001.82 1001.20 1000.39 999.46 998.53 997.72 997.17 996.96 997.10 997.56 998.27 999.12 1000.02 1000.88 1001.66 1002.36 1002.99 1003.58 1004.16 1004.74 1005.33 1005.91 1006.46 1006.98
1007.94 1007.18 1006.67 1006.45 1006.45 1006.58 1006.71 1006.75 1006.60 1006.25 1005.73 1005.10 1004.46 1003.90 1003.46 1003.15 1002.94 1002.76 1002.53 1002.18 1001.69 1001.07 1000.38 999.71 999.15 998.79 998.66 998.79 999.12 999.61 1000.18 1000.78 1001.37 1001.94 1002.48 1003.03 1003.59 1004.18 1004.79 1005.40 1005.99 1006.53 1007.02
1007.37 1006.80 1006.48 1006.40 1006.48 1006.62 1006.73 1006.72 1006.54 1006.17 1005.68 1005.11 1004.56 1004.08 1003.71 1003.44 1003.24 1003.04 1002.79 1002.45 1002.01 1001.50 1000.97 1000.48 1000.10 999.88 999.82 999.93 1000.17 1000.50 1000.87 1001.27 1001.68 1002.11 1002.57 1003.09 1003.66 1004.28 1004.92 1005.55 1006.13 1006.66 1007.11
1006.79 1006.44 1006.31 1006.37 1006.54 1006.72 1006.82 1006.78 1006.57 1006.20 1005.74 1005.24 1004.76 1004.36 1004.03 1003.77 1003.54 1003.29 1002.99 1002.61 1002.17 1001.70 1001.26 1000.89 1000.62 1000.49 1000.49 1000.59 1000.77 1000.99 1001.25 1001.53 1001.84 1002.22 1002.67 1003.20 1003.80 1004.45 1005.10 1005.73 1006.30 1006.78 1007.18
1006.30 1006.14 1006.20 1006.40 1006.65 1006.86 1006.96 1006.89 1006.66 1006.30 1005.86 1005.41 1005.01 1004.66 1004.37 1004.11 1003.83 1003.52 1003.14 1002.70 1002.22 1001.76 1001.35 1001.04 1000.84 1000.77 1000.79 1000.89 1001.04 1001.21 1001.41 1001.65 1001.95 1002.32 1002.80 1003.36 1003.99 1004.66 1005.31 1005.90 1006.41 1006.82 1007.14
1005.99 1006.00 1006.19 1006.50 1006.81 1007.04 1007.12 1007.02 1006.77 1006.41 1006.00 1005.60 1005.24 1004.94 1004.68 1004.41 1004.10 1003.73 1003.28 1002.78 1002.27 1001.79 1001.39 1001.11 1000.95 1000.90 1000.93 1001.03 1001.16 1001.32 1001.50 1001.74 1002.06 1002.47 1002.98 1003.57 1004.22 1004.87 1005.48 1006.00 1006.42 1006.72 1006.95
1005.93 1006.05 1006.33 1006.68 1007.01 1007.22 1007.27 1007.14 1006.86 1006.50 1006.11 1005.75 1005.45 1005.20 1004.96 1004.70 1004.37 1003.96 1003.48 1002.94 1002.40 1001.91 1001.52 1001.24 1001.09 1001.05 1001.08 1001.17 1001.28 1001.43 1001.62 1001.88 1002.22 1002.66 1003.20 1003.80 1004.43 1005.04 1005.57 1005.99 1006.28 1006.45 1006.55
1006.15 1006.30 1006.60 1006.95 1007.24 1007.40 1007.40 1007.22 1006.93 1006.57 1006.21 1005.89 1005.64 1005.43 1005.23 1004.99 1004.67 1004.26 1003.76 1003.22 1002.68 1002.20 1001.81 1001.54 1001.39 1001.33 1001.34 1001.41 1001.50 1001.63 1001.82 1002.07 1002.43 1002.88 1003.42 1004.00 1004.59 1005.12 1005.54 1005.83 1005.98 1006.00 1005.96
1006.60 1006.74 1006.99 1007.27 1007.49 1007.58 1007.51 1007.30 1006.99 1006.64 1006.31 1006.05 1005.85 1005.69 1005.54 1005.33 1005.04 1004.65 1004.17 1003.65 1003.13 1002.67 1002.29 1002.03 1001.86 1001.78 1001.76 1001.78 1001.83 1001.93 1002.09 1002.33 1002.66 1003.10 1003.60 1004.13 1004.65 1005.08 1005.39 1005.55 1005.55 1005.42 1005.23
1007.20 1007.27 1007.44 1007.63 1007.75 1007.76 1007.63 1007.39 1007.08 1006.76 1006.48 1006.27 1006.13 1006.02 1005.91 1005.74 1005.48 1005.12 1004.68 1004.20 1003.71 1003.28 1002.92 1002.65 1002.46 1002.34 1002.27 1002.24 1002.24 1002.29 1002.40 1002.59 1002.88 1003.26 1003.70 1004.17 1004.60 1004.94 1005.14 1005.18 1005.06 1004.80 1004.47
1007.84 1007.83 1007.91 1007.99 1008.02 1007.95 1007.78 1007.54 1007.25 1006.97 1006.75 1006.60 1006.51 1006.44 1006.36 1006.22 1005.99 1005.66 1005.26 1004.81 1004.36 1003.94 1003.59 1003.31 1003.10 1002.95 1002.83 1002.73 1002.67 1002.65 1002.70 1002.82 1003.04 1003.35 1003.71 1004.10 1004.45 1004.71 1004.83 1004.79 1004.58 1004.23 1003.78
1008.41 1008.34 1008.33 1008.33 1008.29 1008.18 1008.00 1007.76 1007.52 1007.30 1007.13 1007.03 1006.98 1006.94 1006.87 1006.74 1006.53 1006.22 1005.84 1005.41 1004.98 1004.58 1004.23 1003.94 1003.70 1003.51 1003.34 1003.19 1003.07 1002.99 1002.96 1003.01 1003.15 1003.37 1003.65 1003.96 1004.23 1004.44 1004.52 1004.44 1004.18 1003.77 1003.24
1008.84 1008.74 1008.68 1008.63 1008.55 1008.43 1008.26 1008.07 1007.89 1007.73 1007.62 1007.55 1007.52 1007.48 1007.41 1007.27 1007.05 1006.74 1006.36 1005.95 1005.53 1005.14 1004.78 1004.47 1004.20 1003.97 1003.77 1003.58 1003.41 1003.28 1003.19 1003.17 1003.23 1003.36 1003.55 1003.78 1004.00 1004.17 1004.23 1004.15 1003.90 1003.47 1002.89
1009.11 1008.99 1008.92 1008.86 1008.78 1008.69 1008.57 1008.44 1008.32 1008.22 1008.15 1008.10 1008.07 1008.01 1007.91 1007.74 1007.50 1007.18 1006.80 1006.39 1005.98 1005.58 1005.21 1004.89 1004.60 1004.34 1004.11 1003.90 1003.71 1003.55 1003.42 1003.34 1003.32 1003.37 1003.47 1003.62 1003.79 1003.93 1003.99 1003.94 1003.72 1003.31 1002.73
1009.20 1009.11 1009.06 1009.01 1008.98 1008.93 1008.87 1008.81 1008.76 1008.70 1008.66 1008.62 1008.56 1008.47 1008.33 1008.12 1007.86 1007.53 1007.15 1006.75 1006.34 1005.93 1005.56 1005.22 1004.92 1004.65 1004.42 1004.20 1004.01 1003.84 1003.69 1003.57 1003.48 1003.45 1003.46 1003.53 1003.63 1003.74 1003.81 1003.79 1003.62 1003.27 1002.72
1009.17 1009.11 1009.09 1009.09 1009.10 1009.12 1009.14 1009.15 1009.15 1009.14 1009.10 1009.04 1008.95 1008.82 1008.64 1008.41 1008.13 1007.80 1007.44 1007.05 1006.65 1006.26 1005.89 1005.54 1005.23 1004.96 1004.74 1004.54 1004.37 1004.21 1004.05 1003.90 1003.76 1003.64 1003.56 1003.53 1003.55 1003.60 1003.66 1003.66 1003.54 1003.26 1002.77
1009.06 1009.04 1009.05 1009.09 1009.16 1009.24 1009.33 1009.40 1009.45 1009.47 1009.44 1009.36 1009.23 1009.06 1008.85 1008.61 1008.34 1008.04 1007.71 1007.36 1007.00 1006.62 1006.26 1005.91 1005.60 1005.34 1005.13 1004.96 1004.81 1004.68 1004.53 1004.36 1004.17 1003.97 1003.78 1003.64 1003.55 1003.52 1003.53 1003.52 1003.44 1003.22 1002.81
1008.93 1008.92 1008.95 1009.02 1009.14 1009.28 1009.43 1009.57 1009.66 1009.70 1009.67 1009.57 1009.42 1009.22 1009.00 1008.77 1008.53 1008.28 1008.01 1007.72 1007.41 1007.07 1006.72 1006.38 1006.07 1005.81 1005.61 1005.46 1005.35 1005.25 1005.12 1004.94 1004.71 1004.43 1004.13 1003.86 1003.64 1003.50 1003.42 1003.38 1003.31 1003.14 1002.82
1008.82 1008.79 1008.82 1008.91 1009.06 1009.25 1009.46 1009.64 1009.78 1009.84 1009.82 1009.71 1009.55 1009.34 1009.13 1008.93 1008.74 1008.56 1008.38 1008.16 1007.90 1007.61 1007.28 1006.94 1006.63 1006.37 1006.18 1006.05 1005.97 1005.90 1005.79 1005.61 1005.35 1005.00 1004.60 1004.19 1003.83 1003.55 1003.36 1003.24 1003.15 1003.02 1002.77
1008.73 1008.67 1008.67 1008.76 1008.93 1009.17 1009.43 1009.67 1009.85 1009.94 1009.93 1009.83 1009.67 1009.47 1009.28 1009.12 1008.99 1008.89 1008.79 1008.65 1008.46 1008.21 1007.90 1007.57 1007.25 1006.99 1006.80 1006.68 1006.63 1006.58 1006.50 1006.34 1006.06 1005.65 1005.16 1004.63 1004.13 1003.70 1003.38 1003.16 1003.02 1002.89 1002.71
1008.66 1008.55 1008.53 1008.61 1008.79 1009.06 1009.36 1009.66 1009.89 1010.02 1010.04 1009.96 1009.80 1009.62 1009.46 1009.34 1009.27 1009.24 1009.21 1009.15 1009.02 1008.81 1008.53 1008.20 1007.88 1007.60 1007.40 1007.30 1007.26 1007.25 1007.20 1007.06 1006.78 1006.35 1005.80 1005.17 1004.55 1003.98 1003.52 1003.19 1002.97 1002.83 1002.68
1008.59 1008.44 1008.38 1008.45 1008.64 1008.93 1009.28 1009.63 1009.92 1010.10 1010.16 1010.10 1009.96 1009.79 1009.65 1009.56 1009.53 1009.56 1009.59 1009.59 1009.52 1009.35 1009.09 1008.77 1008.44 1008.15 1007.95 1007.85 1007.83 1007.84 1007.83 1007.72 1007.47 1007.05 1006.47 1005.79 1005.08 1004.40 1003.82 1003.38 1003.07 1002.88 1002.74
1008.50 1008.31 1008.22 1008.27 1008.46 1008.78 1009.18 1009.58 1009.93 1010.16 1010.26 1010.23 1010.11 1009.95 1009.81 1009.74 1009.74 1009.79 1009.87 1009.92 1009.89 1009.75 1009.52 1009.21 1008.89 1008.60 1008.40 1008.30 1008.29 1008.33 1008.36 1008.30 1008.09 1007.71 1007.15 1006.46 1005.70 1004.95 1004.28 1003.74 1003.34 1003.07 1002.90
1008.34 1008.13 1008.02 1008.05 1008.25 1008.59 1009.03 1009.49 1009.89 1010.17 1010.31 1010.31 1010.20 1010.05 1009.91 1009.83 1009.83 1009.90 1010.00 1010.08 1010.08 1009.99 1009.79 1009.51 1009.20 1008.92 1008.72 1008.63 1008.63 1008.69 1008.75 1008.74 1008.60 1008.27 1007.77 1007.11 1006.36 1005.58 1004.86 1004.24 1003.76 1003.41 1003.18
1008.09 1007.88 1007.75 1007.77 1007.97 1008.33 1008.80 1009.29 1009.75 1010.08 1010.26 1010.29 1010.20 1010.05 1009.90 1009.81 1009.80 1009.86 1009.97 1010.07 1010.11 1010.06 1009.90 1009.66 1009.38 1009.12 1008.93 1008.84 1008.84 1008.92 1009.01 1009.04 1008.96 1008.71 1008.28 1007.69 1006.98 1006.23 1005.49 1004.83 1004.27 1003.85 1003.53
1007.75 1007.53 1007.39 1007.40 1007.59 1007.96 1008.44 1008.98 1009.47 1009.86 1010.08 1010.14 1010.06 1009.92 1009.76 1009.66 1009.63 1009.69 1009.80 1009.92 1009.99 1009.99 1009.88 1009.69 1009.45 1009.21 1009.03 1008.94 1008.94 1009.01 1009.12 1009.18 1009.15 1008.98 1008.63 1008.13 1007.50 1006.80 1006.09 1005.41 1004.82 1004.32 1003.93
Thickness
5793 5796 5796 5796 5797 5796 5795 5795 5794 5794 5794 5794 5793 5793 5793 5792 5791 5790 5789 5788 5787 5786 5786 5785 5784 5783 5782 5780 5779 5779 5778 5776 5775 5773 5772 5771 5770 5769 5769 5767 5766 5765 5764
5798 5798 5797 5797 5797 5796 5795 5794 5793 5793 5793 5793 5792 5792 5791 5790 5789 5788 5788 5787 5786 5785 5784 5783 5782 5781 5780 5779 5778 5777 5776 5775 5773 5772 5771 5770 5768 5767 5767 5766 5765 5764 5763
5800 5799 5798 5797 5796 5796 5795 5794 5793 5793 5792 5792 5791 5791 5790 5789 5788 5787 5786 5785 5784 5783 5782 5781 5780 5779 5778 5777 5776 5775 5775 5773 5771 5770 5770 5768 5767 5766 5765 5764 5763 5763 5762
5801 5799 5798 5797 5796 5795 5794 5793 5792 5792 5791 5791 5790 5789 5789 5788 5787 5786 5785 5784 5783 5782 5781 5780 5778 5777 5776 5776 5775 5773 5772 5771 5769 5768 5767 5766 5765 5764 5763 5762 5762 5761 5761
5801 5799 5798 5797 5795 5794 5793 5792 5792 5792 5791 5790 5789 5788 5787 5786 5785 5784 5784 5783 5782 5781 5780 5779 5777 5776 5775 5774 5773 5772 5771 5770 5768 5766 5765 5765 5764 5763 5761 5760 5760 5759 5759
5801 5800 5798 5797 5795 5793 5792 5792 5792 5792 5792 5791 5789 5788 5787 5785 5784 5784 5783 5782 5781 5780 5779 5778 5777 5776 5774 5773 5772 5771 5770 5768 5766 5765 5764 5763 5762 5761 5760 5759 5758 5757 5757
5801 5800 5798 5796 5795 5793 5792 5792 5792 5793 5792 5791 5789 5788 5786 5785 5784 5783 5782 5782 5780 5779 5778 5777 5776 5775 5774 5773 5772 5771 5769 5767 5765 5763 5762 5762 5761 5760 5759 5758 5757 5756 5755
5802 5800 5799 5797 5795 5794 5793 5792 5792 5792 5791 5790 5788 5787 5786 5785 5783 5783 5782 5782 5780 5779 5777 5776 5775 5774 5773 5772 5771 5769 5768 5766 5764 5762 5761 5760 5759 5759 5758 5757 5755 5754 5753
5803 5801 5799 5797 5795 5794 5792 5791 5791 5791 5791 5789 5787 5786 5785 5784 5783 5782 5782 5781 5781 5779 5778 5776 5775 5774 5773 5771 5770 5768 5767 5765 5763 5761 5760 5758 5758 5758 5757 5756 5755 5753 5752
5802 5801 5799 5797 5795 5794 5792 5791 5790 5789 5789 5787 5785 5785 5784 5782 5782 5781 5781 5782 5781 5779 5777 5776 5775 5774 5772 5771 5769 5767 5766 5764 5762 5760 5758 5758 5757 5757 5756 5754 5753 5752 5751
5799 5799 5798 5797 5795 5794 5792 5791 5789 5788 5787 5786 5785 5784 5782 5781 5781 5780 5780 5781 5780 5778 5777 5776 5775 5773 5772 5770 5768 5766 5765 5763 5760 5759 5758 5758 5757 5756 5755 5753 5752 5751 5750
5795 5796 5797 5796 5794 5793 5792 5790 5789 5787 5786 5785 5784 5783 5781 5780 5780 5779 5779 5779 5778 5777 5776 5775 5774 5772 5771 5769 5768 5766 5764 5762 5760 5759 5758 5758 5757 5756 5755 5753 5752 5750 5749
5797 5797 5797 5795 5794 5793 5792 5790 5788 5787 5785 5784 5783 5782 5781 5780 5779 5778 5777 5777 5776 5775 5774 5773 5772 5771 5770 5768 5767 5766 5764 5763 5761 5760 5759 5758 5757 5756 5754 5753 5751 5749 5748
5797 5797 5797 5797 5795 5793 5792 5790 5788 5787 5785 5784 5783 5782 5781 5779 5777 5776 5775 5775 5774 5773 5772 5771 5770 5770 5769 5767 5767 5765 5764 5763 5762 5760 5758 5758 5757 5756 5754 5752 5750 5749 5748
5798 5798 5798 5798 5795 5793 5792 5790 5788 5786 5786 5785 5784 5782 5781 5779 5777 5776 5775 5774 5773 5772 5771 5770 5769 5768 5767 5766 5765 5764 5763 5762 5760 5759 5758 5757 5756 5755 5754 5752 5750 5749 5747
5799 5798 5798 5797 5796 5794 5791 5789 5788 5787 5786 5784 5783 5782 5781 5779 5778 5776 5775 5774 5772 5772 5771 5770 5768 5767 5766 5765 5764 5763 5762 5761 5760 5758 5758 5757 5756 5754 5753 5751 5750 5749 5747
5800 5800 5799 5797 5795 5793 5791 5790 5788 5787 5786 5784 5783 5782 5781 5780 5778 5776 5775 5773 5772 5771 5771 5769 5767 5766 5765 5764 5762 5762 5761 5761 5760 5759 5758 5757 5755 5754 5753 5751 5750 5748 5747
5802 5800 5799 5799 5795 5793 5791 5790 5788 5787 5785 5784 5783 5782 5781 5779 5778 5776 5774 5773 5772 5771 5769 5768 5766 5764 5762 5761 5760 5761 5761 5760 5760 5760 5758 5756 5755 5754 5752 5751 5750 5748 5746
5804 5801 5798 5797 5795 5793 5791 5790 5788 5787 5785 5784 5783 5782 5780 5779 5778 5776 5774 5773 5772 5770 5768 5768 5765 5763 5760 5759 5759 5760 5760 5760 5759 5759 5757 5755 5754 5753 5752 5750 5749 5747 5745
5804 5802 5799 5797 5795 5794 5791 5789 5787 5786 5784 5783 5782 5781 5780 5779 5778 5776 5774 5773 5771 5769 5767 5765 5763 5762 5760 5759 5759 5758 5758 5759 5758 5757 5756 5755 5754 5752 5751 5749 5747 5746 5744
5804 5801 5798 5796 5795 5793 5790 5787 5784 5782 5782 5782 5782 5781 5780 5779 5777 5775 5773 5771 5770 5767 5765 5764 5762 5760 5758 5758 5754 5751 5753 5756 5755 5755 5754 5753 5752 5751 5749 5747 5745 5743 5742
5803 5800 5799 5797 5796 5794 5791 5789 5786 5784 5782 5782 5782 5781 5780 5778 5777 5775 5773 5770 5768 5766 5764 5762 5760 5757 5756 5757 5751 5745 5740 5743 5748 5752 5750 5749 5748 5748 5747 5745 5743 5741 5739
5802 5801 5800 5797 5796 5794 5793 5790 5787 5783 5781 5779 5778 5778 5778 5777 5776 5774 5772 5770 5768 5765 5762 5761 5759 5756 5752 5753 5752 5745 5736 5732 5737 5743 5745 5745 5745 5744 5744 5743 5741 5739 5737
5804 5804 5801 5798 5796 5795 5793 5789 5784 5779 5776 5776 5776 5776 5776 5775 5774 5773 5771 5769 5767 5765 5762 5760 5759 5756 5752 5748 5748 5748 5745 5741 5734 5732 5738 5741 5742 5740 5740 5740 5738 5736 5734
5807 5804 5801 5798 5796 5794 5792 5789 5784 5780 5778 5777 5776 5774 5773 5773 5772 5771 5769 5767 5765 5763 5761 5759 5757 5754 5752 5748 5745 5744 5743 5741 5738 5731 5728 5731 5734 5736 5737 5736 5735 5734 5732
5806 5804 5801 5797 5794 5793 5791 5788 5784 5780 5777 5775 5772 5770 5769 5769 5769 5768 5767 5765 5763 5761 5759 5757 5755 5752 5750 5747 5745 5743 5740 5736 5733 5730 5726 5726 5727 5730 5733 5733 5732 5730 5729